カタログに戻る

THORAD AGENA D DEB

運用中LEO
NORAD 42520·DEBRIS·🇺🇸 United States

打ち上げ Apr 8, 1970 から Vandenberg Space Force Base

Loading…

次のパス (今後24時間)

TLE

経年Source: Space-Track

元期: Sep 11, 2026, 11:07 UTC

1 42520U 70025SA  26254.46368200  .00000679  00000-0  56877-3 0  9993
2 42520 100.2899 130.1946 0092431 235.7674 123.4698 13.90533612639139

AllMySatでTHORAD AGENA D DEBをリアルタイム追跡

Download on the App Store